DW8913 Weather Reports


Display with metric or nautical units.
time (UTC)temp
F
wind
direction
speed
MPH
gust
MPH
rain 1hr
in
rain 24hr
in
rain mn
in
humidity
%
barometer
mb
20260901073001 75 163 0.0 0.0 0.00 0.15 0.00 92 1016.4
20260901071549 75 163 0.0 1.0 0.00 0.15 0.00 92 1016.3
20260901070015 75 152 0.0 2.0 0.00 0.15 0.00 92 1016.2
20260901064555 75 180 0.0 1.0 0.00 0.67 0.00 91 1016.4
20260901063018 75 157 0.0 3.0 0.00 0.67 0.00 91 1016.5
20260901061602 75 157 0.0 2.0 0.00 0.67 0.00 91 1016.6
20260901060027 75 156 0.0 0.0 0.00 0.67 0.00 90 1016.8
20260901054607 75 174 0.0 2.0 0.00 0.67 0.00 90 1017.1
20260901053040 75 173 0.0 1.0 0.00 0.67 0.00 90 1017.3
20260901051506 75 150 0.0 0.0 0.00 0.67 0.00 90 1017.3
20260901050043 75 154 0.0 1.0 0.00 0.67 0.00 90 1017.4
20260901044510 76 159 0.0 2.0 0.00 0.67 0.00 90 1017.4
20260901043108 76 179 0.0 3.0 0.00 0.67 0.00 90 1017.4
20260901041524 75 162 1.0 4.0 0.00 0.67 0.00 90 1017.5
20260901040137 75 187 0.0 2.0 0.00 0.67 0.00 90 1017.2
20260901034548 75 164 0.0 2.0 0.00 0.67 0.67 90 1017.2
20260901033014 75 163 0.0 3.0 0.00 0.67 0.67 89 1017.1
20260901031625 75 122 0.0 2.0 0.00 0.67 0.67 89 1017.2
20260901030043 75 156 1.0 6.0 0.00 0.67 0.67 89 1017.4
20260901024623 75 179 0.0 4.0 0.00 0.67 0.67 89 1017.5
20260901023044 75 211 0.0 3.0 0.00 0.67 0.67 89 1017.6
20260901021516 75 210 0.0 4.0 0.00 0.67 0.67 89 1017.6
20260901020057 75 173 1.0 4.0 0.00 0.67 0.67 89 1017.8
20260901014527 75 183 0.0 3.0 0.00 0.67 0.67 88 1017.7
20260901013110 75 186 2.0 4.0 0.00 0.67 0.67 88 1017.6
20260901011537 75 175 1.0 3.0 0.00 0.67 0.67 88 1017.7
20260901010008 75 192 0.0 2.0 0.00 0.67 0.67 88 1017.7
20260901004545 75 169 0.0 3.0 0.00 0.67 0.67 88 1017.4
20260901003007 75 199 1.0 3.0 0.00 0.67 0.67 87 1017.2
20260901001607 75 233 1.0 3.0 0.00 0.67 0.67 87 1017.5
20260901000030 75 146 2.0 4.0 0.00 0.67 0.67 86 1017.6
20260831234603 76 143 1.0 3.0 0.00 0.67 0.67 86 1017.6
20260831233033 76 194 2.0 4.0 0.00 0.67 0.67 85 1017.8
20260831231611 76 176 0.0 2.0 0.00 0.67 0.67 85 1018.0
20260831230040 76 141 0.0 2.0 0.00 0.67 0.67 84 1017.8
20260831224608 76 2 1.0 2.0 0.00 0.67 0.67 84 1017.9
20260831223037 76 162 0.0 2.0 0.00 0.67 0.67 84 1017.9
20260831221507 76 208 0.0 3.0 0.00 0.67 0.67 82 1018.0
20260831220046 77 39 1.0 3.0 0.00 0.67 0.67 82 1018.2
20260831214512 78 213 0.0 3.0 0.00 0.67 0.67 80 1018.2
20260831213059 77 257 1.0 6.0 0.00 0.67 0.67 80 1018.1
20260831211526 78 9 1.0 5.0 0.00 0.67 0.67 79 1018.2
20260831210128 78 21 1.0 4.0 0.00 0.67 0.67 81 1018.1
20260831204538 77 30 1.0 5.0 0.00 0.67 0.67 80 1018.1
20260831203014 78 163 2.0 6.0 0.00 0.67 0.67 80 1018.1
20260831201600 78 354 1.0 8.0 0.00 0.67 0.67 79 1018.1
20260831200024 78 248 1.0 5.0 0.00 0.67 0.67 80 1018.4
20260831194626 78 214 1.0 6.0 0.00 0.67 0.67 80 1018.3
20260831193028 79 203 1.0 4.0 0.00 0.67 0.67 77 1018.3
20260831191612 79 214 1.0 4.0 0.00 0.67 0.67 76 1018.5
20260831190047 80 198 0.0 4.0 0.00 0.67 0.67 76 1018.6
20260831184519 79 299 0.0 4.0 0.00 0.67 0.67 77 1018.5
20260831183103 80 207 0.0 3.0 0.00 0.67 0.67 76 1018.6
20260831181529 80 229 1.0 6.0 0.00 0.67 0.67 74 1018.7
20260831180112 80 149 1.0 4.0 0.00 0.67 0.67 75 1018.8
20260831174536 79 14 0.0 3.0 0.00 0.67 0.67 76 1018.9
20260831173008 79 243 1.0 4.0 0.00 0.67 0.67 77 1018.9
20260831171551 79 25 1.0 5.0 0.00 0.67 0.67 76 1018.8
20260831170024 80 219 1.0 3.0 0.00 0.67 0.67 74 1018.9
20260831164611 81 13 0.0 4.0 0.00 0.67 0.67 75 1018.9
20260831163031 80 7 1.0 3.0 0.00 0.67 0.67 76 1018.9
20260831161607 80 223 1.0 4.0 0.00 0.67 0.67 77 1019.0
20260831160037 81 242 0.0 5.0 0.00 0.67 0.67 75 1019.0
20260831154510 81 67 2.0 6.0 0.00 0.67 0.67 75 1019.0
20260831153049 80 219 1.0 5.0 0.00 0.67 0.67 78 1019.1
20260831151524 81 210 2.0 5.0 0.00 0.67 0.67 76 1019.2
20260831150109 80 218 0.0 5.0 0.00 0.67 0.67 79 1019.1
20260831144544 80 18 0.0 5.0 0.00 0.67 0.67 79 1019.2
20260831143009 78 224 1.0 4.0 0.00 0.67 0.67 81 1019.0
20260831141557 78 25 0.0 5.0 0.00 0.67 0.67 83 1019.0
20260831140020 77 220 0.0 2.0 0.00 0.67 0.67 84 1018.9
20260831134556 77 350 1.0 4.0 0.00 0.67 0.67 85 1019.0
20260831133030 76 238 0.0 3.0 0.00 0.67 0.67 86 1019.0
20260831131600 75 347 0.0 2.0 0.00 0.67 0.67 88 1019.2
20260831130032 74 13 1.0 3.0 0.00 0.67 0.67 90 1019.1
20260831124509 74 255 1.0 3.0 0.00 0.67 0.67 91 1019.0
20260831123043 73 191 0.0 2.0 0.00 0.67 0.67 91 1019.1
20260831121515 73 240 0.0 1.0 0.00 0.67 0.67 91 1018.9
20260831120048 73 29 0.0 2.0 0.00 0.67 0.67 92 1018.7
20260831114531 73 200 0.0 2.0 0.00 0.67 0.67 92 1018.8
20260831113056 72 251 0.0 2.0 0.00 0.67 0.67 92 1018.7
20260831111506 72 213 0.0 1.0 0.00 0.67 0.67 92 1018.5
20260831110045 72 302 0.0 0.0 0.00 0.67 0.67 92 1018.5
20260831104519 72 324 0.0 0.0 0.00 0.67 0.67 92 1018.3
20260831103103 72 325 0.0 0.0 0.00 0.67 0.67 93 1018.4
20260831101526 72 200 0.0 0.0 0.00 0.67 0.67 92 1018.2
20260831100108 72 200 0.0 0.0 0.00 0.67 0.67 92 1017.8
20260831094536 72 162 0.0 0.0 0.00 0.67 0.67 92 1017.7
20260831093008 72 162 0.0 0.0 0.00 0.67 0.67 92 1017.8
20260831091552 71 162 0.0 0.0 0.00 0.67 0.67 92 1017.6
20260831090014 72 162 0.0 0.0 0.01 0.67 0.67 91 1017.4
20260831084551 72 162 0.0 0.0 0.07 0.67 0.67 91 1017.5
20260831083035 72 164 0.0 0.0 0.13 0.67 0.67 92 1017.5
20260831081605 72 250 0.0 3.0 0.14 0.67 0.67 92 1017.5
20260831080031 72 238 0.0 2.0 0.13 0.66 0.66 91 1017.5
20260831074503 72 18 1.0 7.0 0.57 0.59 0.59 91 1017.8